[[{"header":{"parameterUnit":"m.s-1","parameterCategory":1,"la1":30.2991,"la2":30.254,"lo1":-89.0895,"lo2":-89.0444,"dy":0.0017,"dx":0.0017,"nx":28,"ny":28,"refTime":"2024-04-26T03:00:00:Z","depth":0,"parameterNumber":2,"parameterNumberName":"U-component_of_WINDS"},"data":[0,0,0,0,0,0,0,0,0,0,0,0,0,0,0,0,0,0,0,0,0,0,0,0,0,0,0,0,0,0,0,0,0,0,0,0,0,0,0,0,0,0,0,0,0,0,0,0,0,0,0,0,0,0,0,0,0,0,-5.5367,-5.5368,0,-5.5513,-5.5515,-5.5516,-5.5484,-5.5481,-5.5478,-5.5476,-5.5621,-5.5627,-5.5633,0,0,0,0,0,0,0,0,0,0,0,0,0,-5.5055,-5.5061,-5.5367,-5.5369,-5.537,-5.5513,-5.5515,-5.5517,-5.5484,-5.5481,-5.5478,-5.5475,-5.5619,-5.5626,-5.5634,0,0,0,0,0,0,0,0,0,0,0,0,0,-5.5195,-5.5063,-5.5366,-5.5371,-5.5373,-5.5513,-5.5515,-5.5517,-5.5485,-5.5481,-5.5477,-5.5473,-5.5616,-5.5626,-5.5635,-5.5777,0,0,-5.5665,-5.5669,0,0,0,0,0,0,0,0,-5.5187,-5.5206,-5.5369,-5.5371,-5.5374,-5.5476,-5.5458,-5.5604,-5.5486,-5.5443,-5.5476,-5.5471,-5.5576,-5.5588,-5.5625,-5.5783,-5.579,-5.5665,-5.5671,-5.5675,-5.5678,0,0,0,0,0,0,0,-5.5177,-5.52,-5.5424,-5.5371,-5.5374,-5.5365,-5.5381,-5.5486,-5.553,-5.5446,-5.5444,-5.5462,-5.5576,-5.5616,-5.5628,-5.5792,-5.5665,-5.5674,-5.568,-5.5683,-5.6074,-5.6078,0,0,0,0,0,0,-5.5166,-5.5192,-5.542,-5.5429,-5.5269,-5.5374,-5.5391,-5.5447,-5.5529,-5.5538,-5.5465,-5.546,-5.5601,-5.5617,-5.5633,-5.5803,-5.5675,-5.5684,-5.569,-5.6069,-5.6075,-5.608,0,0,0,0,0,0,-5.516,-5.5187,-5.5414,-5.531,-5.5338,-5.5384,-5.5447,-5.5452,-5.5492,-5.5544,-5.5551,-5.5498,-5.5599,-5.5619,-5.5742,-5.5808,-5.5689,-5.5697,-5.6064,-5.6071,-5.6078,-5.6145,0,0,0,0,0,0,-5.5151,-5.5185,-5.524,-5.5312,-5.5344,-5.5521,-5.5451,-5.5458,-5.5509,-5.5503,-5.5576,-5.5584,-5.5597,-5.5727,-5.5751,-5.5819,-5.5705,-5.6058,-5.6067,-5.6075,-5.6137,-5.6154,-5.6168,0,0,0,0,0,-5.514,-5.5252,-5.5242,-5.527,-5.5414,-5.5525,-5.5543,-5.5557,-5.5514,-5.5569,-5.5603,-5.5582,-5.5798,-5.574,-5.5767,-5.5838,-5.6054,-5.6065,-5.6075,-5.613,-5.615,-5.6167,0,0,0,0,0,0,-5.5184,-5.5261,-5.5252,-5.5391,-5.5452,-5.5519,-5.5589,-5.5578,-5.5651,-5.5643,-5.5656,-5.5673,-5.5797,-5.583,-5.5765,-5.598,-5.5919,-5.5936,-5.5953,-5.5972,-5.5987,-5.5975,-5.5713,0,0,0,0,0,-5.521,-5.5296,-5.5358,-5.5474,-5.5506,-5.5543,-5.5591,-5.5598,-5.5661,-5.5686,-5.5728,-5.5789,-5.5871,-5.5924,-5.6002,-5.6143,-5.6158,-5.6206,-5.6221,-5.6233,-5.6246,-5.6322,-5.6344,-5.6114,-5.6114,-5.6114,0,0,-5.5264,-5.5317,-5.537,-5.5485,-5.5533,-5.5619,-5.5564,-5.5658,-5.5722,-5.5699,-5.5817,-5.5851,-5.592,-5.6052,-5.6113,-5.6084,-5.6313,-5.6246,-5.6256,-5.6262,-5.6335,-5.6357,-5.6376,-5.6121,-5.612,-5.6119,0,0,-5.5407,-5.5456,-5.5558,-5.5609,-5.5683,-5.5707,-5.5732,-5.5802,-5.5824,-5.5944,-5.5928,-5.6005,-5.6145,-5.6195,-5.6238,-5.6403,-5.6385,-5.6428,-5.6506,-5.6581,-5.6599,-5.6615,-5.6672,-5.6692,-5.6441,-5.6442,-5.6442,0,-5.5463,-5.5595,-5.5612,-5.5708,-5.5758,-5.5745,-5.5848,-5.5895,-5.5991,-5.6025,-5.5992,-5.6169,-5.6215,-5.6358,-5.6398,-5.6435,-5.6462,-5.6418,-5.6595,-5.6611,-5.6627,-5.6681,-5.6702,-5.6446,-5.6446,-5.6445,-5.6445,0,-5.5661,-5.5753,-5.5826,-5.5921,-5.598,-5.6079,-5.6109,-5.6167,-5.6169,-5.6196,-5.6318,-5.6373,-5.6461,-5.6497,-5.6499,-5.6641,-5.6621,-5.6592,-5.6531,-5.6653,-5.6704,-5.6725,-5.6453,-5.6451,-5.645,-5.6448,0,0,-5.5831,-5.5936,-5.5963,-5.6006,-5.6088,-5.6159,-5.6257,-5.6346,-5.6395,-5.6462,-5.6544,-5.6664,-5.6639,-5.6688,-5.6696,-5.6762,-5.6887,-5.6725,-5.6727,-5.6751,-5.7046,-5.7065,-5.7089,-5.6878,-5.6882,-5.6885,-5.7039,0,-5.5979,-5.6154,-5.6173,-5.6329,-5.6413,-5.6403,-5.6489,-5.6548,-5.6577,-5.6652,-5.6683,-5.6768,-5.6729,-5.6758,-5.6824,-5.6858,-5.6946,-5.6848,-5.6952,-5.6955,-5.6932,-5.7116,-5.7136,-5.7279,-5.706,-5.7063,-5.7066,0,-5.6174,-5.6249,-5.6414,-5.6486,-5.6522,-5.6598,-5.6681,-5.6754,-5.6821,-5.6838,-5.6895,-5.6895,-5.6995,-5.6934,-5.7072,-5.7005,-5.7049,-5.7073,-5.7079,-5.7086,-5.7015,-5.7126,-5.7325,-5.7345,-5.7098,-5.7095,-5.7093,0,-5.6279,-5.6421,-5.6538,-5.6576,-5.6663,-5.6717,-5.6756,-5.6819,-5.6872,-5.6945,-5.6979,-5.7062,-5.7107,-5.7171,-5.7193,-5.7146,-5.733,-5.727,-5.7344,-5.7344,-5.738,-5.7377,-5.7586,-5.7414,-5.7414,-5.7413,-5.7413,0,-5.644,-5.6541,-5.6587,-5.6658,-5.677,-5.6792,-5.6902,-5.6938,-5.6995,-5.7072,-5.7069,-5.7142,-5.7168,-5.7245,-5.7263,-5.7373,-5.7394,-5.7409,-5.7412,-5.7408,-5.7405,-5.7434,-5.7424,-5.7419,-5.7418,-5.7417,-5.7416,0,-5.6575,-5.661,-5.6736,-5.681,-5.6831,-5.691,-5.6972,-5.7041,-5.707,-5.7168,-5.7193,-5.7238,-5.7328,-5.7358,-5.7467,-5.7479,-5.7607,-5.7603,-5.7585,-5.7584,-5.7656,-5.7648,-5.7888,-5.792,-5.773,-5.7732,-5.7733,0,-5.6674,-5.6751,-5.6834,-5.6887,-5.6928,-5.7013,-5.7067,-5.7092,-5.7148,-5.7232,-5.729,-5.7381,-5.7453,-5.7598,-5.764,-5.7723,-5.7719,-5.7798,-5.7731,-5.7725,-5.7717,-5.7711,-5.7718,-5.7809,-5.7811,-5.7813,-5.7814,0,-5.6845,-5.6859,-5.6938,-5.7025,-5.709,-5.7159,-5.7225,-5.7268,-5.7302,-5.7366,-5.7459,-5.7516,-5.7629,-5.7717,-5.7803,-5.7841,-5.7833,-5.7836,-5.7857,-5.7851,-5.7836,-5.7843,-5.7616,-5.7829,-5.7827,-5.7826,-5.7825,-5.7825,-5.6963,-5.7031,-5.7101,-5.7189,-5.7242,-5.7305,-5.7373,-5.7412,-5.7491,-5.7585,-5.7596,-5.7696,-5.7762,-5.7876,-5.792,-5.7998,-5.7975,-5.8006,-5.8013,-5.802,-5.8024,-5.7827,-5.8013,-5.8013,-5.8013,-5.8012,-5.8012,0,-5.7132,-5.7177,-5.7259,-5.7352,-5.7422,-5.7412,-5.7485,-5.7543,-5.7632,-5.7696,-5.7769,-5.7876,-5.7963,-5.8013,-5.81,-5.8153,-5.8151,-5.8175,-5.8169,-5.8178,-5.8041,-5.8013,-5.8174,-5.8174,-5.8174,-5.8174,-5.8174,-5.8174,-5.7228,-5.7343,-5.7365,-5.7506,-5.7551,-5.765,-5.7693,-5.775,-5.7801,-5.7921,-5.7994,-5.8028,-5.8086,-5.8177,-5.8256,-5.8269,-5.8299,-5.8325,-5.8334,-5.8204,-5.8188,-5.8172,-5.8145,-5.8332,-5.8332,-5.8465,-5.8466,-5.8467]},{"header":{"parameterUnit":"m.s-1","parameterCategory":1,"la1":30.2991,"la2":30.254,"lo1":-89.0895,"lo2":-89.0444,"dy":0.0017,"dx":0.0017,"nx":28,"ny":28,"refTime":"2024-04-26T03:00:00:Z","depth":0,"parameterNumber":3,"parameterNumberName":"V-component_of_WINDS"},"data":[0,0,0,0,0,0,0,0,0,0,0,0,0,0,0,0,0,0,0,0,0,0,0,0,0,0,0,0,0,0,0,0,0,0,0,0,0,0,0,0,0,0,0,0,0,0,0,0,0,0,0,0,0,0,0,0,0,0,1.9568,1.9568,0,1.9566,1.9566,1.9566,1.9529,1.9528,1.9527,1.9526,1.9524,1.9525,1.9526,0,0,0,0,0,0,0,0,0,0,0,0,0,1.9544,1.9544,1.9568,1.9568,1.9568,1.9566,1.9566,1.9566,1.9529,1.9528,1.9527,1.9526,1.9524,1.9525,1.9526,0,0,0,0,0,0,0,0,0,0,0,0,0,1.9549,1.9545,1.9568,1.955,1.9548,1.9566,1.9566,1.9566,1.9529,1.9528,1.9527,1.9525,1.9524,1.9525,1.9526,1.9562,0,0,1.953,1.9531,0,0,0,0,0,0,0,0,1.9549,1.955,1.9553,1.9551,1.9549,1.9546,1.9556,1.9564,1.953,1.9537,1.9526,1.9525,1.9533,1.9533,1.9536,1.9562,1.9562,1.953,1.9531,1.9531,1.9532,0,0,0,0,0,0,0,1.9549,1.955,1.9567,1.9553,1.9551,1.9542,1.9541,1.9558,1.9543,1.9536,1.9533,1.9533,1.9532,1.9535,1.9536,1.9562,1.953,1.9531,1.9532,1.9532,1.9618,1.9619,0,0,0,0,0,0,1.9551,1.955,1.9567,1.9567,1.9546,1.9544,1.9543,1.9549,1.9542,1.954,1.9535,1.9532,1.9533,1.9534,1.9535,1.9577,1.9531,1.9533,1.9533,1.9616,1.9618,1.962,0,0,0,0,0,0,1.955,1.9552,1.9568,1.9558,1.9559,1.9546,1.9552,1.9549,1.9552,1.9541,1.9539,1.954,1.9532,1.9534,1.9556,1.9576,1.9533,1.9534,1.9615,1.9617,1.9619,1.9661,0,0,0,0,0,0,1.955,1.9553,1.9565,1.9558,1.956,1.9588,1.9554,1.955,1.9554,1.9551,1.9546,1.9544,1.9531,1.9554,1.9557,1.9577,1.9535,1.9613,1.9616,1.9618,1.9657,1.9664,1.967,0,0,0,0,0,1.9549,1.9577,1.9566,1.9569,1.9576,1.9589,1.959,1.9574,1.9556,1.9569,1.9563,1.9544,1.9574,1.9557,1.956,1.9581,1.9611,1.9615,1.9618,1.9654,1.9663,1.967,0,0,0,0,0,0,1.9587,1.9576,1.9564,1.959,1.9591,1.9582,1.9598,1.9583,1.9589,1.9585,1.9566,1.9566,1.9591,1.9588,1.9569,1.9615,1.9589,1.9594,1.9616,1.9624,1.963,1.963,1.9536,0,0,0,0,0,1.9598,1.9609,1.9599,1.9624,1.9625,1.9612,1.9617,1.9605,1.9605,1.9605,1.96,1.9601,1.961,1.9617,1.9625,1.9657,1.9656,1.9673,1.9679,1.9685,1.9688,1.9706,1.9714,1.9631,1.9631,1.9631,0,0,1.9622,1.9617,1.9626,1.9632,1.9631,1.9643,1.9612,1.9627,1.9636,1.9607,1.9628,1.9624,1.9624,1.9652,1.9663,1.965,1.9711,1.9689,1.9693,1.9694,1.971,1.9718,1.9725,1.9633,1.9633,1.9633,0,0,1.9672,1.9669,1.969,1.969,1.9689,1.968,1.9685,1.9679,1.9676,1.9696,1.9675,1.9687,1.9703,1.9704,1.9707,1.9759,1.9742,1.9762,1.9795,1.9812,1.9819,1.9824,1.9843,1.985,1.9766,1.9766,1.9766,0,1.9701,1.9719,1.9702,1.9718,1.9722,1.9697,1.9718,1.9719,1.9721,1.9724,1.971,1.9731,1.9729,1.9756,1.9769,1.9772,1.9778,1.9762,1.9819,1.9824,1.9829,1.9847,1.9854,1.9769,1.9768,1.9768,1.9768,0,1.9756,1.9769,1.9786,1.9788,1.9794,1.9812,1.9799,1.9807,1.9796,1.9789,1.981,1.9808,1.9815,1.9821,1.981,1.9847,1.9839,1.9822,1.9795,1.984,1.9856,1.9863,1.9772,1.9771,1.9771,1.977,0,0,1.9828,1.9822,1.9829,1.983,1.9828,1.9837,1.9856,1.9863,1.987,1.9873,1.9888,1.9904,1.9888,1.9891,1.988,1.9895,1.9937,1.9876,1.9876,1.9888,1.9979,1.9992,2.0,1.9926,1.9928,1.9929,1.9979,0,1.9876,1.9906,1.9892,1.9924,1.9936,1.9913,1.9929,1.993,1.9925,1.9935,1.9929,1.994,1.9919,1.9921,1.9935,1.9929,1.9955,1.9925,1.9941,1.9941,1.9941,2.0009,2.0022,2.007,1.9986,1.9987,1.9988,0,1.9936,1.9941,1.9974,1.9971,1.9975,1.999,1.9996,2.0006,2.0007,2.0002,2.0006,1.9992,2.001,1.9984,2.001,1.9989,1.9995,1.9994,1.9995,1.9996,1.9967,2.0011,2.0085,2.0092,1.9997,1.9997,1.9996,0,1.9986,2.0001,2.0023,2.0025,2.0021,2.0032,2.0031,2.0031,2.0036,2.0042,2.0046,2.0054,2.0058,2.0065,2.0054,2.0036,2.0081,2.0054,2.0078,2.0078,2.0088,2.0088,2.0164,2.0092,2.0092,2.0092,2.0092,0,2.0041,2.0062,2.0045,2.0059,2.0082,2.0067,2.0091,2.0087,2.0088,2.01,2.0082,2.0094,2.0079,2.009,2.0081,2.0104,2.0106,2.0103,2.0101,2.0105,2.0105,2.0108,2.0105,2.0094,2.0093,2.0093,2.0093,0,2.01,2.009,2.0112,2.0107,2.0107,2.0124,2.012,2.0133,2.0127,2.0143,2.0147,2.0137,2.015,2.0139,2.0151,2.0146,2.0176,2.0169,2.0176,2.0174,2.0198,2.0196,2.0279,2.0289,2.0211,2.0212,2.0212,0,2.0136,2.0152,2.0149,2.0156,2.0156,2.0168,2.0174,2.016,2.0167,2.017,2.0183,2.0194,2.0202,2.0223,2.0218,2.0227,2.022,2.0249,2.0221,2.0226,2.0221,2.022,2.0222,2.0254,2.0255,2.0256,2.0256,0,2.02,2.0195,2.0204,2.0212,2.0219,2.0225,2.0229,2.0236,2.0222,2.0231,2.0243,2.025,2.0263,2.0274,2.0282,2.0282,2.0267,2.0265,2.0271,2.0275,2.0279,2.0278,2.0191,2.0263,2.0262,2.0262,2.0261,2.0261,2.0249,2.0262,2.0263,2.0274,2.0275,2.028,2.0292,2.0287,2.0297,2.0307,2.0298,2.0314,2.0315,2.0325,2.0326,2.0339,2.0327,2.0336,2.0338,2.034,2.0344,2.0277,2.034,2.034,2.034,2.034,2.0339,0,2.0313,2.0312,2.0323,2.0329,2.0338,2.0323,2.0327,2.0336,2.035,2.0353,2.0361,2.0376,2.0388,2.0384,2.0394,2.0405,2.0398,2.0408,2.0407,2.0407,2.0354,2.0347,2.0413,2.0413,2.0413,2.0413,2.0413,2.0413,2.0347,2.0369,2.0364,2.0387,2.0386,2.0401,2.0405,2.0409,2.0411,2.0429,2.0439,2.0436,2.0436,2.0446,2.0457,2.0455,2.046,2.0472,2.0468,2.0418,2.0411,2.0404,2.0398,2.0473,2.0473,2.0521,2.0521,2.0522]}]]